period_start,C,m1,H,J0,J1,J2,J3,J4,J5,JA,JB,JC,JD,JJ,JK,JN,#
2016-03-20 00:00:22,0.14,0.16,0.00,25.40,28.47,31.57,14.51,49.17,1022.96,2029.98,3531.02,3084.42,3500.09,600.14,595.00,1.18,0000 0000 0000 0000 000000
2016-03-20 00:05:24,0.14,0.17,0.00,25.41,28.50,31.57,14.37,49.02,1022.96,2029.98,3527.67,3082.20,3497.48,599.97,594.89,1.23,0000 0000 0000 0000 000000
2016-03-20 00:10:25,0.15,0.18,0.00,25.42,28.50,31.60,14.43,49.23,1022.96,2029.96,3524.27,3079.96,3494.88,599.85,594.70,1.28,0000 0000 0000 0000 000000
2016-03-20 00:15:27,0.13,0.19,0.00,25.42,28.51,31.58,14.42,49.14,1022.95,2029.82,3520.91,3077.64,3492.24,599.82,594.71,1.33,0000 0000 0000 0000 000000
2016-03-20 00:20:28,0.14,0.19,0.00,25.45,28.52,31.60,14.46,49.17,1022.96,2029.71,3517.74,3075.45,3489.66,600.12,594.95,1.38,0000 0000 0000 0000 000000
2016-03-20 00:25:30,0.09,0.20,0.00,25.46,28.53,31.61,14.53,49.22,1022.96,2029.30,3514.48,3073.17,3486.95,600.17,595.05,1.43,0000 0000 0000 0000 000000
2016-03-20 00:30:31,0.14,0.20,0.00,25.48,28.55,31.63,14.35,49.13,1022.96,2029.24,3511.01,3070.98,3484.47,599.83,594.54,1.48,0000 0000 0000 0000 000000
2016-03-20 00:35:32,0.14,0.21,0.00,25.50,28.55,31.61,14.53,49.19,1022.96,2029.18,3507.67,3068.87,3481.96,600.49,595.14,1.53,0000 0000 0000 0000 000000
2016-03-20 00:40:34,0.13,0.22,0.00,25.51,28.55,31.64,14.47,49.09,1022.96,2029.10,3504.42,3066.73,3479.44,600.20,594.78,1.58,0000 0000 0000 0000 000000
2016-03-20 00:45:35,0.14,0.23,0.00,25.52,28.57,31.65,14.46,49.21,1022.96,2029.09,3500.99,3064.50,3476.96,600.12,594.83,1.63,0000 0000 0000 0000 000000
2016-03-20 00:50:37,0.15,0.23,0.00,25.52,28.57,31.64,14.43,49.08,1022.96,2029.08,3497.61,3062.26,3474.41,599.97,594.66,1.68,0000 0000 0000 0000 000000
2016-03-20 00:55:38,0.14,0.24,0.00,25.54,28.57,31.66,14.42,49.09,1022.96,2029.08,3494.21,3060.03,3471.86,599.43,594.09,1.74,0000 0000 0000 0000 000000
2016-03-20 01:00:39,0.14,0.25,0.00,25.55,28.58,31.66,14.46,49.02,1022.96,2029.04,3490.80,3057.75,3469.30,600.23,594.97,1.79,0000 0000 0000 0000 000000
2016-03-20 01:05:40,0.14,0.26,0.00,25.57,28.60,31.69,14.47,49.13,1022.96,2029.02,3487.51,3055.57,3466.79,600.08,594.53,1.84,0000 0000 0000 0000 000000
2016-03-20 01:10:41,0.15,0.26,0.00,25.58,28.60,31.67,14.47,49.13,1022.96,2029.00,3484.07,3053.29,3464.09,600.30,594.87,1.89,0000 0000 0000 0000 000000
2016-03-20 01:15:42,0.14,0.27,0.00,25.61,28.62,31.64,14.36,48.97,1022.96,2029.00,3480.77,3051.03,3461.49,599.78,594.38,1.94,0000 0000 0000 0000 000000
2016-03-20 01:20:44,0.14,0.28,0.00,25.62,28.62,31.66,14.44,49.02,1022.96,2029.00,3477.50,3048.85,3458.97,600.08,594.49,1.99,0000 0000 0000 0000 000000
2016-03-20 01:25:45,0.14,0.29,0.00,25.64,28.64,31.64,14.39,48.93,1022.96,2029.00,3474.12,3046.58,3456.36,599.84,594.40,2.04,0000 0000 0000 0000 000000
2016-03-20 01:30:45,0.15,0.29,0.00,25.66,28.65,31.66,14.47,49.08,1022.96,2029.00,3470.63,3044.27,3453.87,600.22,594.61,2.09,0000 0000 0000 0000 000000
2016-03-20 01:35:47,0.15,0.30,0.00,25.69,28.66,31.69,14.43,49.10,1022.96,2029.00,3467.16,3041.98,3451.27,600.16,594.51,2.14,0000 0000 0000 0000 000000
2016-03-20 01:40:48,0.14,0.31,0.00,25.71,28.67,31.66,14.36,49.15,1022.96,2028.99,3463.85,3039.71,3448.60,599.92,594.30,2.19,0000 0000 0000 0000 000000
2016-03-20 01:45:49,0.15,0.32,0.00,25.73,28.69,31.67,14.47,49.08,1022.96,2028.99,3460.37,3037.37,3446.10,600.34,594.60,2.24,0000 0000 0000 0000 000000
2016-03-20 01:50:51,0.15,0.32,0.00,25.76,28.70,31.68,14.44,49.07,1022.96,2028.98,3456.98,3035.10,3443.48,600.08,594.31,2.29,0000 0000 0000 0000 000000
2016-03-20 01:55:52,0.15,0.33,0.00,25.78,28.71,31.70,14.47,49.21,1022.96,2028.95,3453.56,3032.76,3440.89,600.06,594.24,2.34,0000 0000 0000 0000 000000
2016-03-20 02:00:53,0.15,0.34,0.00,25.81,28.72,31.71,14.46,49.15,1022.96,2028.94,3450.17,3030.48,3438.30,600.27,594.51,2.39,0000 0000 0000 0000 000000
2016-03-20 02:05:55,0.14,0.35,0.00,25.82,28.74,31.73,14.46,49.02,1022.96,2028.92,3446.84,3028.28,3435.75,600.31,594.21,2.44,0000 0000 0000 0000 000000
2016-03-20 02:10:56,0.15,0.35,0.00,25.85,28.75,31.74,14.51,49.21,1022.96,2028.88,3443.45,3026.04,3433.19,600.25,594.30,2.49,0000 0000 0000 0000 000000
2016-03-20 02:15:57,0.14,0.36,0.00,25.87,28.76,31.75,14.51,49.07,1022.96,2028.83,3440.06,3023.81,3430.63,600.69,594.72,2.54,0000 0000 0000 0000 000000
2016-03-20 02:20:59,0.13,0.37,0.00,25.90,28.77,31.74,14.40,49.03,1022.96,2028.62,3436.71,3021.51,3428.04,600.15,594.12,2.59,0000 0000 0000 0000 000000
2016-03-20 02:26:00,0.13,0.38,0.00,25.93,28.78,31.74,14.44,48.89,1022.96,2028.52,3433.37,3019.29,3425.45,599.95,593.93,2.64,0000 0000 0000 0000 000000
2016-03-20 02:31:02,0.13,0.38,0.00,25.96,28.80,31.75,14.41,49.06,1022.95,2028.21,3429.99,3017.03,3422.89,599.92,593.87,2.69,0000 0000 0000 0000 000000
2016-03-20 02:36:03,0.14,0.39,0.00,26.00,28.81,31.77,14.37,49.21,1022.94,2028.10,3426.60,3014.75,3420.27,599.57,593.35,2.74,0000 0000 0000 0000 000000
2016-03-20 02:41:05,0.14,0.40,0.00,26.02,28.82,31.77,14.32,49.01,1022.95,2028.05,3423.35,3012.52,3417.79,599.72,593.40,2.79,0000 0000 0000 0000 000000
2016-03-20 02:46:06,0.15,0.40,0.00,26.06,28.83,31.77,14.41,49.40,1022.87,2028.03,3419.90,3010.24,3415.18,600.16,593.72,2.84,0000 0000 0000 0000 000000
2016-03-20 02:51:08,0.14,0.41,0.00,26.08,28.85,31.77,14.40,49.32,1022.75,2028.02,3416.68,3008.14,3412.64,599.90,593.32,2.89,0000 0000 0000 0000 000000
2016-03-20 02:56:09,0.15,0.42,0.00,26.10,28.85,31.80,14.39,49.27,1022.90,2028.00,3413.30,3006.03,3410.11,599.66,593.18,2.94,0000 0000 0000 0000 000000
2016-03-20 03:01:10,0.14,0.43,0.00,26.10,28.87,31.79,14.40,49.49,1022.94,2028.00,3409.99,3003.83,3407.58,600.14,593.69,2.99,0000 0000 0000 0000 000000
2016-03-20 03:06:12,0.15,0.43,0.00,26.10,28.87,31.81,14.34,49.34,1022.96,2028.00,3406.67,3001.59,3405.08,599.54,593.05,3.04,0000 0000 0000 0000 000000
2016-03-20 03:11:13,0.14,0.44,0.00,26.11,28.87,31.83,14.34,49.37,1022.96,2028.00,3403.38,2999.42,3402.54,599.93,593.45,3.09,0000 0000 0000 0000 000000
2016-03-20 03:16:14,0.14,0.45,0.00,26.12,28.87,31.83,14.35,49.32,1022.95,2028.00,3400.18,2997.29,3400.17,599.95,593.36,3.14,0000 0000 0000 0000 000000
2016-03-20 03:21:15,0.14,0.46,0.00,26.12,28.88,31.83,14.39,49.32,1022.93,2028.00,3396.97,2995.17,3397.70,599.75,593.19,3.19,0000 0000 0000 0000 000000
2016-03-20 03:26:17,0.15,0.46,0.00,26.15,28.90,31.83,14.38,49.28,1022.94,2028.00,3393.64,2992.96,3395.20,599.94,593.38,3.24,0000 0000 0000 0000 000000
2016-03-20 03:31:18,0.15,0.47,0.00,26.17,28.90,31.85,14.32,49.33,1022.93,2028.00,3390.49,2990.75,3392.69,599.74,593.14,3.29,0000 0000 0000 0000 000000
2016-03-20 03:36:19,0.14,0.48,0.00,26.20,28.90,31.85,14.37,49.22,1022.96,2028.00,3387.27,2988.57,3390.34,600.15,593.59,3.34,0000 0000 0000 0000 000000
2016-03-20 03:41:21,0.15,0.49,0.00,26.22,28.91,31.85,14.36,49.23,1022.93,2028.00,3383.94,2986.33,3387.88,599.87,593.21,3.39,0000 0000 0000 0000 000000
2016-03-20 03:46:22,0.15,0.50,0.00,26.25,28.92,31.85,14.38,49.26,1022.91,2028.00,3380.62,2984.15,3385.37,600.07,593.29,3.44,0000 0000 0000 0000 000000
2016-03-20 03:51:23,0.15,0.50,0.00,26.26,28.92,31.87,14.41,49.50,1022.91,2028.00,3377.24,2981.88,3382.77,600.04,593.35,3.49,0000 0000 0000 0000 000000
2016-03-20 03:56:24,0.14,0.51,0.00,26.29,28.94,31.87,14.36,49.43,1022.90,2028.00,3373.98,2979.65,3380.31,599.96,593.08,3.54,0000 0000 0000 0000 000000
2016-03-20 04:01:26,0.14,0.52,0.00,26.30,28.95,31.87,14.41,49.31,1022.92,2027.98,3370.74,2977.45,3377.75,600.07,593.26,3.59,0000 0000 0000 0000 000000
2016-03-20 04:06:27,0.14,0.52,0.00,26.31,28.96,31.89,14.44,49.29,1022.92,2027.97,3367.54,2975.30,3375.29,600.11,593.21,3.64,0000 0000 0000 0000 000000
2016-03-20 04:11:28,0.14,0.53,0.00,26.32,28.97,31.88,14.38,49.39,1022.85,2027.98,3364.37,2973.10,3372.88,599.93,593.04,3.69,0000 0000 0000 0000 000000
2016-03-20 04:16:29,0.14,0.54,0.00,26.32,28.98,31.90,14.37,49.30,1022.83,2027.98,3361.24,2971.06,3370.52,600.01,592.99,3.74,0000 0000 0000 0000 000000
2016-03-20 04:21:31,0.15,0.55,0.00,26.32,29.00,31.91,14.31,49.36,1022.73,2027.96,3357.91,2968.83,3367.97,599.82,592.79,3.79,0000 0000 0000 0000 000000
2016-03-20 04:26:32,0.15,0.56,0.00,26.32,29.00,31.91,14.43,49.29,1022.87,2027.94,3354.68,2966.63,3365.47,600.04,593.03,3.84,0000 0000 0000 0000 000000
2016-03-20 04:31:33,0.15,0.56,0.00,26.34,29.01,31.92,14.43,49.33,1022.80,2027.96,3351.44,2964.46,3363.05,600.06,593.05,3.89,0000 0000 0000 0000 000000
2016-03-20 04:36:34,0.14,0.57,0.00,26.37,29.02,31.92,14.38,49.39,1022.84,2027.90,3348.11,2962.26,3360.48,600.10,593.05,3.94,0000 0000 0000 0000 000000
2016-03-20 04:41:35,0.15,0.58,0.00,26.39,29.02,31.92,14.42,49.32,1022.80,2027.92,3344.87,2960.07,3357.95,599.93,592.81,3.99,0000 0000 0000 0000 000000
2016-03-20 04:46:36,0.14,0.59,0.00,26.41,29.05,31.93,14.40,49.38,1022.79,2027.84,3341.65,2957.86,3355.39,599.86,592.69,4.04,0000 0000 0000 0000 000000
2016-03-20 04:51:38,0.12,0.59,0.00,26.40,29.05,31.95,14.32,49.39,1022.84,2027.64,3338.46,2955.70,3352.95,599.92,592.75,4.10,0000 0000 0000 0000 000000
2016-03-20 04:56:39,0.13,0.60,0.00,26.41,29.06,31.96,14.32,49.38,1022.84,2027.39,3335.21,2953.49,3350.39,599.87,592.74,4.15,0000 0000 0000 0000 000000
2016-03-20 05:01:40,0.14,0.61,0.00,26.42,29.07,31.96,14.43,49.41,1022.93,2027.19,3331.93,2951.26,3347.89,600.17,592.97,4.20,0000 0000 0000 0000 000000
2016-03-20 05:06:41,0.14,0.61,0.00,26.42,29.09,31.96,14.34,49.33,1022.93,2027.12,3328.71,2949.08,3345.36,599.71,592.66,4.25,0000 0000 0000 0000 000000
2016-03-20 05:11:43,0.14,0.62,0.00,26.43,29.10,31.97,14.37,49.36,1022.96,2027.06,3325.48,2946.84,3342.85,599.94,592.82,4.30,0000 0000 0000 0000 000000
2016-03-20 05:16:44,0.15,0.63,0.00,26.46,29.11,31.97,14.38,49.40,1022.96,2027.04,3322.26,2944.64,3340.37,600.22,593.20,4.35,0000 0000 0000 0000 000000
2016-03-20 05:21:45,0.14,0.64,0.00,26.47,29.12,31.98,14.45,49.51,1022.96,2027.02,3319.07,2942.53,3337.80,600.00,592.85,4.40,0000 0000 0000 0000 000000
2016-03-20 05:26:46,0.15,0.64,0.00,26.47,29.13,31.99,14.42,49.47,1022.96,2027.00,3315.76,2940.32,3335.26,599.96,592.77,4.45,0000 0000 0000 0000 000000
2016-03-20 05:31:48,0.15,0.65,0.00,26.48,29.15,32.00,14.47,49.56,1022.96,2027.00,3312.60,2938.08,3332.77,600.29,593.03,4.50,0000 0000 0000 0000 000000
2016-03-20 05:36:49,0.15,0.66,0.00,26.50,29.16,32.01,14.44,49.60,1022.96,2027.00,3309.40,2935.88,3330.23,600.10,592.70,4.55,0000 0000 0000 0000 000000
2016-03-20 05:41:50,0.14,0.67,0.00,26.50,29.17,32.03,14.38,49.46,1022.96,2027.00,3306.17,2933.73,3327.82,599.60,592.46,4.60,0000 0000 0000 0000 000000
2016-03-20 05:46:52,0.15,0.67,0.00,26.50,29.20,32.05,14.45,49.41,1022.96,2027.00,3302.97,2931.52,3325.35,600.17,592.92,4.65,0000 0000 0000 0000 000000
2016-03-20 05:51:53,0.14,0.68,0.00,26.52,29.20,32.05,14.37,49.42,1022.96,2026.99,3299.77,2929.38,3322.88,599.61,592.42,4.70,0000 0000 0000 0000 000000
2016-03-20 05:56:55,0.15,0.69,0.00,26.53,29.22,32.05,14.41,49.42,1022.97,2026.98,3296.58,2927.21,3320.38,600.16,592.87,4.75,0000 0000 0000 0000 000000
2016-03-20 06:01:56,0.15,0.70,0.00,26.55,29.22,32.06,14.37,49.54,1022.98,2026.92,3293.31,2924.97,3317.87,600.12,592.79,4.80,0000 0000 0000 0000 000000
2016-03-20 06:06:57,0.14,0.70,0.00,26.55,29.25,32.08,14.32,49.48,1022.98,2026.86,3290.14,2922.78,3315.38,599.97,592.63,4.85,0000 0000 0000 0000 000000
2016-03-20 06:11:59,0.13,0.71,0.00,26.58,29.25,32.10,14.39,49.48,1022.98,2026.70,3287.03,2920.65,3312.89,599.93,592.57,4.90,0000 0000 0000 0000 000000
2016-03-20 06:17:00,0.12,0.72,0.00,26.58,29.27,32.10,14.37,49.55,1022.98,2026.47,3283.87,2918.54,3310.47,599.99,592.55,4.95,0000 0000 0000 0000 000000
2016-03-20 06:22:02,0.12,0.72,0.00,26.59,29.27,32.11,14.37,49.52,1022.99,2026.25,3280.77,2916.41,3308.07,600.02,592.60,5.00,0000 0000 0000 0000 000000
2016-03-20 06:27:03,0.15,0.73,0.00,26.60,29.29,32.12,14.41,49.55,1022.97,2026.15,3277.69,2914.30,3305.62,600.08,592.70,5.05,0000 0000 0000 0000 000000
2016-03-20 06:32:04,0.13,0.74,0.00,26.61,29.30,32.13,14.38,49.47,1022.98,2026.08,3274.63,2912.27,3303.23,600.01,592.46,5.10,0000 0000 0000 0000 000000
2016-03-20 06:37:05,0.15,0.75,0.00,26.62,29.31,32.15,14.36,49.62,1022.98,2026.02,3271.54,2910.07,3300.82,600.09,592.66,5.15,0000 0000 0000 0000 000000
2016-03-20 06:42:06,0.13,0.75,0.00,26.62,29.32,32.14,14.41,49.62,1022.98,2026.00,3268.48,2907.98,3298.41,599.85,592.45,5.20,0000 0000 0000 0000 000000
2016-03-20 06:47:07,0.14,0.76,0.00,26.63,29.32,32.16,14.40,49.59,1023.00,2026.00,3265.46,2905.97,3296.13,600.35,592.86,5.25,0000 0000 0000 0000 000000
2016-03-20 06:52:08,0.13,0.77,0.00,26.65,29.33,32.18,14.41,49.48,1022.98,2026.00,3262.70,2904.01,3293.83,600.56,593.02,5.30,0000 0000 0000 0000 000000
2016-03-20 06:57:10,0.14,0.77,0.00,26.65,29.35,32.18,14.37,49.65,1023.03,2026.00,3259.89,2902.02,3291.60,600.38,592.90,5.35,0000 0000 0000 0000 000000
2016-03-20 07:02:11,0.14,0.78,0.00,26.65,29.35,32.18,14.26,49.48,1023.06,2025.99,3256.94,2900.02,3289.27,599.82,592.33,5.40,0000 0000 0000 0000 000000
2016-03-20 07:07:13,0.14,0.79,0.00,26.67,29.35,32.18,14.36,49.54,1023.13,2025.99,3253.95,2898.04,3287.03,599.89,592.40,5.45,0000 0000 0000 0000 000000
2016-03-20 07:12:14,0.13,0.80,0.00,26.69,29.36,32.20,14.28,49.48,1023.17,2025.99,3251.07,2896.10,3284.78,599.40,591.88,5.50,0000 0000 0000 0000 000000
2016-03-20 07:17:15,0.13,0.80,0.00,26.72,29.37,32.20,14.31,49.61,1023.10,2025.99,3248.19,2894.18,3282.57,599.93,592.29,5.55,0000 0000 0000 0000 000000
2016-03-20 07:22:16,0.14,0.81,0.00,26.75,29.37,32.23,14.31,49.53,1023.28,2025.98,3245.25,2892.18,3280.28,599.62,592.07,5.60,0000 0000 0000 0000 000000
2016-03-20 07:27:18,0.13,0.82,0.00,26.78,29.37,32.21,14.43,49.66,1023.43,2025.97,3242.31,2890.16,3278.00,600.13,592.59,5.65,0000 0000 0000 0000 000000
2016-03-20 07:32:19,0.14,0.82,0.00,26.80,29.39,32.22,14.34,49.61,1023.45,2025.95,3239.37,2888.21,3275.70,599.96,592.41,5.70,0000 0000 0000 0000 000000
2016-03-20 07:37:21,0.14,0.83,0.00,26.83,29.40,32.20,14.37,49.57,1023.41,2025.95,3236.55,2886.25,3273.47,600.11,592.62,5.75,0000 0000 0000 0000 000000
2016-03-20 07:42:22,0.12,0.84,0.00,26.86,29.40,32.21,14.37,49.66,1023.39,2025.80,3233.63,2884.26,3271.21,599.74,592.11,5.80,0000 0000 0000 0000 000000
2016-03-20 07:47:23,0.14,0.85,0.00,26.87,29.40,32.22,14.37,49.61,1023.45,2025.83,3230.81,2882.32,3269.09,599.63,591.93,5.85,0000 0000 0000 0000 000000
2016-03-20 07:52:25,0.12,0.85,0.00,26.90,29.41,32.23,14.37,49.56,1023.45,2025.70,3227.95,2880.42,3266.82,600.01,592.23,5.90,0000 0000 0000 0000 000000
2016-03-20 07:57:26,0.10,0.86,0.00,26.90,29.42,32.25,14.41,49.61,1023.45,2025.41,3224.97,2878.59,3264.57,599.97,592.25,5.95,0000 0000 0000 0000 000000
2016-03-20 08:02:27,0.13,0.86,0.00,26.92,29.42,32.26,14.41,49.55,1023.46,2025.31,3222.07,2876.65,3262.51,600.36,592.54,6.00,0000 0000 0000 0000 000000
2016-03-20 08:07:29,0.12,0.87,0.00,26.94,29.44,32.24,14.37,49.53,1023.47,2025.21,3219.31,2874.72,3260.32,599.67,591.76,6.05,0000 0000 0000 0000 000000
2016-03-20 08:12:30,0.13,0.88,0.00,26.96,29.45,32.25,14.32,49.37,1023.47,2025.05,3216.38,2872.73,3258.03,599.96,592.09,6.10,0000 0000 0000 0000 000000
2016-03-20 08:17:31,0.13,0.88,0.00,26.98,29.45,32.28,14.31,49.35,1023.49,2025.02,3213.60,2870.81,3255.79,599.73,591.81,6.15,0000 0000 0000 0000 000000
2016-03-20 08:22:32,0.14,0.89,0.00,27.01,29.47,32.29,14.32,49.31,1023.52,2025.00,3210.69,2868.81,3253.50,599.93,591.88,6.20,0000 0000 0000 0000 000000
2016-03-20 08:27:33,0.14,0.90,0.00,27.02,29.49,32.30,14.37,49.33,1023.58,2025.00,3207.76,2866.80,3251.23,600.09,592.14,6.25,0000 0000 0000 0000 000000
2016-03-20 08:32:35,0.14,0.91,0.00,27.03,29.50,32.31,14.31,49.31,1023.88,2025.00,3204.84,2864.81,3249.02,600.20,592.42,6.30,0000 0000 0000 0000 000000
2016-03-20 08:37:36,0.14,0.91,0.00,27.05,29.52,32.33,14.27,49.32,1023.91,2025.00,3201.99,2862.85,3246.79,599.47,591.68,6.36,0000 0000 0000 0000 000000
2016-03-20 08:42:37,0.15,0.92,0.00,27.07,29.53,32.34,14.32,49.38,1023.94,2025.00,3199.01,2860.80,3244.44,599.93,592.14,6.41,0000 0000 0000 0000 000000
2016-03-20 08:47:39,0.15,0.93,0.00,27.08,29.55,32.37,14.36,49.58,1023.94,2024.99,3195.97,2858.68,3242.07,599.88,592.21,6.46,0000 0000 0000 0000 000000
2016-03-20 08:52:40,0.14,0.94,0.00,27.10,29.57,32.39,14.34,49.44,1023.94,2024.98,3192.95,2856.61,3239.71,599.54,591.69,6.51,0000 0000 0000 0000 000000
2016-03-20 08:57:41,0.14,0.94,0.00,27.10,29.58,32.41,14.28,49.58,1023.94,2024.95,3189.90,2854.56,3237.38,599.57,591.81,6.56,0000 0000 0000 0000 000000
2016-03-20 09:02:43,0.14,0.95,0.00,27.10,29.60,32.42,14.35,49.56,1023.95,2024.90,3186.90,2852.48,3234.97,600.28,592.47,6.61,0000 0000 0000 0000 000000
2016-03-20 09:07:44,0.10,0.96,0.00,27.11,29.62,32.44,14.28,49.58,1023.97,2024.70,3184.28,2850.56,3232.71,599.51,591.77,6.66,0000 0000 0000 0000 000000
2016-03-20 09:12:45,0.11,0.96,0.00,27.11,29.63,32.45,14.35,49.50,1024.04,2024.29,3181.17,2848.50,3230.41,600.08,592.26,6.71,0000 0000 0000 0000 000000
2016-03-20 09:17:46,0.14,0.97,0.00,27.12,29.65,32.46,14.40,49.67,1024.00,2024.09,3178.11,2846.38,3228.06,600.23,592.38,6.76,0000 0000 0000 0000 000000
2016-03-20 09:22:48,0.13,0.98,0.00,27.12,29.66,32.48,14.41,49.64,1024.06,2024.04,3175.43,2844.45,3225.77,600.09,592.29,6.81,0000 0000 0000 0000 000000
2016-03-20 09:27:49,0.13,0.98,0.00,27.12,29.67,32.49,14.41,49.48,1024.28,2024.01,3172.60,2842.50,3223.47,599.81,592.10,6.86,0000 0000 0000 0000 000000
2016-03-20 09:32:51,0.14,0.99,0.00,27.12,29.70,32.50,14.37,49.55,1024.36,2024.00,3169.68,2840.56,3221.26,599.95,592.28,6.91,0000 0000 0000 0000 000000
2016-03-20 09:37:52,0.14,1.00,0.00,27.13,29.70,32.52,14.42,49.40,1024.39,2024.00,3166.78,2838.58,3219.01,600.09,592.43,6.96,0000 0000 0000 0000 000000
2016-03-20 09:42:53,0.14,1.00,0.00,27.13,29.72,32.54,14.36,49.38,1024.42,2024.00,3163.88,2836.58,3216.85,599.95,592.35,7.01,0000 0000 0000 0000 000000
2016-03-20 09:47:55,0.14,1.01,0.00,27.14,29.72,32.55,14.30,49.34,1024.43,2024.00,3161.02,2834.65,3214.62,600.16,592.52,7.06,0000 0000 0000 0000 000000
2016-03-20 09:52:56,0.14,1.02,0.00,27.15,29.73,32.56,14.38,49.48,1024.43,2024.00,3158.11,2832.70,3212.42,599.88,592.21,7.11,0000 0000 0000 0000 000000
2016-03-20 09:57:57,0.15,1.03,0.00,27.15,29.75,32.57,14.25,49.42,1024.43,2023.99,3155.14,2830.71,3210.07,599.55,591.82,7.16,0000 0000 0000 0000 000000
2016-03-20 10:02:59,0.14,1.03,0.00,27.15,29.75,32.59,14.40,49.25,1024.43,2023.99,3152.23,2828.70,3207.80,600.22,592.55,7.21,0000 0000 0000 0000 000000
2016-03-20 10:08:00,0.14,1.04,0.00,27.15,29.76,32.60,14.22,49.27,1024.43,2023.99,3149.20,2826.64,3205.50,599.38,591.71,7.26,0000 0000 0000 0000 000000
2016-03-20 10:13:01,0.14,1.05,0.00,27.15,29.77,32.61,14.42,49.42,1024.43,2023.98,3146.19,2824.62,3203.26,600.19,592.51,7.31,0000 0000 0000 0000 000000
2016-03-20 10:18:03,0.14,1.06,0.00,27.15,29.77,32.62,14.41,49.20,1024.43,2023.98,3143.36,2822.71,3201.12,600.31,592.49,7.36,0000 0000 0000 0000 000000
2016-03-20 10:23:04,0.14,1.06,0.00,27.15,29.77,32.63,14.30,49.36,1024.43,2023.99,3140.46,2820.76,3198.92,599.81,592.09,7.41,0000 0000 0000 0000 000000
2016-03-20 10:28:05,0.14,1.07,0.00,27.16,29.78,32.63,14.33,49.28,1024.43,2023.98,3137.67,2818.84,3196.75,600.17,592.47,7.46,0000 0000 0000 0000 000000
2016-03-20 10:33:07,0.13,1.08,0.00,27.15,29.80,32.64,14.39,49.38,1024.43,2023.98,3134.92,2816.91,3194.54,600.32,592.55,7.51,0000 0000 0000 0000 000000
2016-03-20 10:38:08,0.13,1.09,0.00,27.16,29.80,32.65,14.36,49.24,1024.43,2023.97,3132.27,2815.10,3192.32,600.45,592.75,7.56,0000 0000 0000 0000 000000
2016-03-20 10:43:10,0.14,1.09,0.00,27.16,29.80,32.65,14.35,49.51,1024.43,2023.94,3129.47,2813.18,3190.14,600.12,592.42,7.61,0000 0000 0000 0000 000000
2016-03-20 10:48:11,0.14,1.10,0.00,27.17,29.82,32.65,14.40,49.29,1024.43,2023.87,3126.50,2811.21,3187.91,600.21,592.50,7.66,0000 0000 0000 0000 000000
2016-03-20 10:53:12,0.13,1.11,0.00,27.17,29.82,32.66,14.37,49.15,1024.43,2023.81,3123.67,2809.24,3185.64,600.24,592.55,7.71,0000 0000 0000 0000 000000
2016-03-20 10:58:13,0.14,1.11,0.00,27.17,29.82,32.67,14.40,49.37,1024.43,2023.71,3120.82,2807.30,3183.40,600.02,592.16,7.76,0000 0000 0000 0000 000000
2016-03-20 11:03:15,0.14,1.12,0.00,27.17,29.84,32.67,14.38,49.50,1024.43,2023.69,3118.01,2805.34,3181.20,599.98,592.17,7.81,0000 0000 0000 0000 000000
2016-03-20 11:08:16,0.10,1.13,0.00,27.17,29.85,32.67,14.37,49.33,1024.43,2023.27,3115.24,2803.42,3179.00,600.41,592.62,7.86,0000 0000 0000 0000 000000
2016-03-20 11:13:18,0.13,1.13,0.00,27.17,29.85,32.68,14.39,49.46,1024.43,2023.20,3112.54,2801.56,3176.90,600.06,592.33,7.91,0000 0000 0000 0000 000000
2016-03-20 11:18:19,0.13,1.14,0.00,27.17,29.85,32.68,14.35,49.43,1024.42,2023.14,3109.78,2799.71,3174.77,599.99,592.21,7.96,0000 0000 0000 0000 000000
2016-03-20 11:23:20,0.14,1.15,0.00,27.17,29.86,32.69,14.33,49.35,1024.39,2023.12,3107.11,2797.89,3172.67,600.05,592.27,8.01,0000 0000 0000 0000 000000
2016-03-20 11:28:22,0.13,1.15,0.00,27.17,29.87,32.70,14.38,49.32,1024.40,2023.04,3104.32,2796.01,3170.50,599.76,591.97,8.06,0000 0000 0000 0000 000000
2016-03-20 11:33:23,0.13,1.16,0.00,27.19,29.87,32.70,14.38,49.38,1024.42,2023.04,3101.62,2794.15,3168.43,600.09,592.35,8.11,0000 0000 0000 0000 000000
2016-03-20 11:38:24,0.13,1.17,0.00,27.19,29.87,32.70,14.40,49.46,1024.42,2023.02,3098.96,2792.34,3166.31,600.22,592.50,8.16,0000 0000 0000 0000 000000
2016-03-20 11:43:25,0.14,1.17,0.00,27.20,29.87,32.71,14.43,49.26,1024.43,2023.02,3096.13,2790.46,3164.20,599.74,591.95,8.21,0000 0000 0000 0000 000000
2016-03-20 11:48:26,0.14,1.18,0.00,27.19,29.87,32.71,14.33,49.18,1024.43,2023.02,3093.23,2788.52,3162.05,599.79,592.03,8.26,0000 0000 0000 0000 000000
2016-03-20 11:53:28,0.14,1.19,0.00,27.20,29.87,32.72,14.32,49.20,1024.43,2023.04,3090.53,2786.69,3159.91,600.14,592.43,8.31,0000 0000 0000 0000 000000
2016-03-20 11:58:29,0.14,1.20,0.00,27.20,29.87,32.73,14.39,49.39,1024.43,2023.01,3087.70,2784.80,3157.71,599.98,592.23,8.36,0000 0000 0000 0000 000000
2016-03-20 12:03:30,0.14,1.20,0.00,27.20,29.87,32.71,14.34,49.33,1024.43,2023.01,3084.87,2782.84,3155.55,599.92,592.26,8.41,0000 0000 0000 0000 000000
2016-03-20 12:08:31,0.14,1.21,0.00,27.20,29.87,32.72,14.35,49.38,1024.43,2023.01,3082.18,2780.92,3153.41,600.00,592.23,8.46,0000 0000 0000 0000 000000
2016-03-20 12:13:32,0.14,1.22,0.00,27.17,29.87,32.73,14.22,49.39,1024.43,2023.00,3079.41,2779.04,3151.27,599.69,591.91,8.51,0000 0000 0000 0000 000000
2016-03-20 12:18:33,0.14,1.23,0.00,27.18,29.87,32.73,14.37,49.45,1024.43,2023.01,3076.67,2777.14,3149.12,599.91,592.13,8.56,0000 0000 0000 0000 000000
2016-03-20 12:23:35,0.13,1.23,0.00,27.18,29.87,32.73,14.38,49.47,1024.43,2023.02,3073.87,2775.28,3147.01,600.06,592.33,8.61,0000 0000 0000 0000 000000
2016-03-20 12:28:36,0.14,1.24,0.00,27.19,29.88,32.75,14.40,49.49,1024.43,2023.00,3071.17,2773.37,3144.82,600.15,592.37,8.66,0000 0000 0000 0000 000000
2016-03-20 12:33:37,0.14,1.25,0.00,27.20,29.89,32.74,14.31,49.40,1024.43,2023.00,3068.44,2771.51,3142.68,600.08,592.31,8.72,0000 0000 0000 0000 000000
2016-03-20 12:38:39,0.15,1.26,0.00,27.20,29.90,32.73,14.31,49.30,1024.42,2023.00,3065.54,2769.59,3140.52,599.78,591.89,8.77,0000 0000 0000 0000 000000
2016-03-20 12:43:40,0.14,1.26,0.00,27.20,29.90,32.73,14.34,49.42,1024.41,2023.00,3062.84,2767.71,3138.41,599.89,592.10,8.82,0000 0000 0000 0000 000000
2016-03-20 12:48:42,0.15,1.27,0.00,27.20,29.90,32.74,14.28,49.36,1024.41,2023.00,3059.99,2765.80,3136.16,599.80,592.01,8.87,0000 0000 0000 0000 000000
2016-03-20 12:53:43,0.14,1.28,0.00,27.20,29.90,32.74,14.34,49.36,1024.43,2023.00,3057.24,2763.91,3134.25,599.96,592.20,8.92,0000 0000 0000 0000 000000
2016-03-20 12:58:45,0.14,1.28,0.00,27.20,29.90,32.75,14.37,49.46,1024.43,2023.00,3054.41,2762.05,3132.16,600.17,592.32,8.97,0000 0000 0000 0000 000000